Douglas, WY

11:52 AM MST on December 08, 2016 (GMT -0700)
Converse County

Weather History for KDGW - July, 2012

Change the Weather History Date:

Thursday, July 26, 2012

  Actual Average Record
Temperature  
Mean Temperature 70 °F 72 °F  
Max Temperature 88 °F 89 °F 101 °F (2008)
Min Temperature 52 °F 55 °F 50 °F (2004)
Cooling Degree Days 5 8  
Month to date cooling degree days 314 167  
Year to date cooling degree days 521 244  
Since 1 June cooling degree days 502 238  
Growing Degree Days 20 (Base 50)    
Moisture  
Dew Point 48 °F    
Average Humidity 59    
Maximum Humidity 100    
Minimum Humidity 18    
Precipitation  
Precipitation 0.01 in 0.04 in 0.16 in (2005)
Month to date precipitation 0.27 1.18  
Year to date precipitation 3.58 8.73  
Sea Level Pressure  
Sea Level Pressure 30.01 in    
Wind  
Wind Speed 6 mph (North)    
Max Wind Speed 16 mph    
Max Gust Speed 20 mph    
Visibility 9 miles    
Events      
T = Trace of Precipitation, MM = Missing Value Source: NWS Daily Summary

Daily Weather History Graph

Daily Weather History Graph

Search for Another Location

Airport or City:

Trip Planner

Search our weather history database for the weather conditions in past years. The results will help you decide how hot, cold, wet, or windy it might be!

Date:

Astronomy

Jul. 26, 2012 Rise Set
Actual Time 5:47 AM MDT 8:28 PM MDT
Civil Twilight 5:14 AM MDT 9:00 PM MDT
Nautical Twilight 4:33 AM MDT 9:41 PM MDT
Astronomical Twilight 3:46 AM MDT 10:28 PM MDT
Moon 2:17 PM MDT (7/26) No Moon Set
Length of Visible Light 15h 46m
Length of Day
14h 40m
First Quarter, 54% of the Moon is Illuminated
Jul 26
First Quarter
Aug 1
Full
Aug 9
Last Quarter
Aug 17
New
Aug 24
First Quarter

Hourly Weather History & Observations

Time (MDT) Temp. Dew Point Humidity Pressure Visibility Wind Dir Wind Speed Gust Speed Precip Events Conditions
12:53 AM 55.9 °F 53.1 °F 90% 29.94 in 10.0 mi ESE 4.6 mph - N/A   Clear
1:53 AM 55.0 °F 53.1 °F 93% 29.94 in 10.0 mi North 3.5 mph - N/A   Clear
2:46 AM 53.6 °F 51.8 °F 94% 30.12 in 10.0 mi Calm Calm - 0.01 in   Partly Cloudy
2:53 AM 53.1 °F 52.0 °F 96% 29.95 in 10.0 mi NW 3.5 mph - 0.01 in   Partly Cloudy
3:01 AM 53.6 °F 51.8 °F 94% 30.12 in 1.8 mi WNW 3.5 mph - N/A   Scattered Clouds
3:14 AM 53.6 °F 51.8 °F 94% 30.12 in 3.0 mi Calm Calm - N/A   Scattered Clouds
3:53 AM 52.0 °F 52.0 °F 100% 29.98 in 10.0 mi WNW 5.8 mph - N/A   Clear
4:53 AM 54.0 °F 52.0 °F 93% 29.98 in 10.0 mi NNW 5.8 mph - N/A   Clear
5:53 AM 55.0 °F 53.1 °F 93% 30.00 in 10.0 mi NNW 6.9 mph - N/A   Clear
6:53 AM 55.9 °F 54.0 °F 93% 30.02 in 10.0 mi NNW 5.8 mph - N/A   Overcast
7:53 AM 59.0 °F 55.0 °F 87% 30.06 in 10.0 mi NNW 10.4 mph - N/A   Clear
8:53 AM 64.9 °F 55.9 °F 73% 30.06 in 10.0 mi NW 11.5 mph - N/A   Mostly Cloudy
9:53 AM 71.1 °F 54.0 °F 55% 30.05 in 10.0 mi NW 8.1 mph - N/A   Clear
10:53 AM 78.1 °F 48.0 °F 35% 30.02 in 10.0 mi NE 8.1 mph - N/A   Clear
11:53 AM 79.0 °F 46.9 °F 32% 30.03 in 10.0 mi Variable 3.5 mph - N/A   Clear
12:53 PM 82.9 °F 46.9 °F 28% 30.01 in 10.0 mi Variable 3.5 mph - N/A   Clear
1:53 PM 82.9 °F 45.0 °F 26% 30.00 in 10.0 mi Calm Calm - N/A   Clear
2:53 PM 86.0 °F 43.0 °F 22% 29.99 in 10.0 mi NW 10.4 mph - N/A   Clear
3:53 PM 87.1 °F 39.9 °F 19% 29.98 in 10.0 mi Variable 3.5 mph - N/A   Clear
4:53 PM 86.0 °F 41.0 °F 20% 29.97 in 10.0 mi Calm Calm - N/A   Clear
5:53 PM 87.1 °F 39.9 °F 19% 29.96 in 10.0 mi NNE 5.8 mph - N/A   Clear
6:53 PM 86.0 °F 39.9 °F 20% 29.96 in 10.0 mi ENE 3.5 mph - N/A   Clear
7:53 PM 82.0 °F 39.9 °F 22% 29.96 in 10.0 mi ENE 4.6 mph - N/A   Clear
8:53 PM 73.0 °F 41.0 °F 31% 29.99 in 10.0 mi East 8.1 mph - N/A   Clear
9:53 PM 69.1 °F 41.0 °F 36% 30.00 in 10.0 mi East 8.1 mph - N/A   Clear
10:53 PM 66.9 °F 41.0 °F 39% 30.01 in 10.0 mi SSE 5.8 mph - N/A   Clear
11:53 PM 64.0 °F 42.1 °F 45% 30.01 in 10.0 mi ESE 9.2 mph - N/A   Clear